Ludington, MI

12:50 AM EDT on October 24, 2019 (GMT -0400)
Mason County

Weather History for KLDM - August, 2019

Change the Weather History Date:

Sunday, August 4, 2019

  Actual Average Record
Temperature  
Mean Temperature 67 °F -  
Max Temperature 78 °F 79 °F 95 °F (1988)
Min Temperature 56 °F 57 °F 37 °F (1972)
Cooling Degree Days 2    
Growing Degree Days 17 (Base 50)    
Moisture  
Dew Point 61 °F    
Average Humidity 78    
Maximum Humidity 98    
Minimum Humidity 40    
Precipitation  
Precipitation 0.00 in - - ()
Sea Level Pressure  
Sea Level Pressure 30.04 in    
Wind  
Wind Speed 2 mph (NW)    
Max Wind Speed 12 mph    
Max Gust Speed 18 mph    
Visibility 7 miles    
Events Fog    
Averages and records for this station are not official NWS values.
T = Trace of Precipitation, MM = Missing Value Source: NWS Daily Summary

Daily Weather History Graph

Daily Weather History Graph

Search for Another Location

Airport or City:

Astronomy

Aug. 04, 2019 Rise Set
Actual Time 6:36 AM EDT 9:05 PM EDT
Civil Twilight 6:04 AM EDT 9:38 PM EDT
Nautical Twilight 5:23 AM EDT 10:18 PM EDT
Astronomical Twilight 4:37 AM EDT 11:04 PM EDT
Moon 10:49 AM EDT (8/4) 11:36 PM EDT (8/4)
Length of Visible Light 15h 33m
Length of Day
14h 28m
Waxing Crescent, 18% of the Moon is Illuminated
Aug 4
Waxing Crescent
Aug 7
First Quarter
Aug 15
Full
Aug 23
Last Quarter
Aug 30
New

Hourly Weather History & Observations

Time (EDT) Temp. Dew Point Humidity Pressure Visibility Wind Dir Wind Speed Gust Speed Precip Events Conditions
12:17 AM 64.0 °F 63.1 °F 97% 30.04 in 0.5 mi Calm Calm - N/A Fog Fog
12:35 AM 63.3 °F 62.6 °F 97% 30.04 in 0.5 mi Calm Calm - N/A Fog Fog
12:55 AM 62.4 °F 61.5 °F 97% 30.05 in 0.2 mi Calm Calm - N/A Fog Fog
1:15 AM 62.8 °F 61.9 °F 97% 30.05 in 1.5 mi Calm Calm - N/A   Scattered Clouds
1:38 AM 63.5 °F 62.8 °F 97% 30.05 in 3.0 mi Calm Calm - N/A   Mostly Cloudy
1:56 AM 63.0 °F 62.2 °F 97% 30.05 in 1.2 mi Calm Calm - N/A   Overcast
2:15 AM 61.2 °F 60.4 °F 97% 30.05 in 7.0 mi East 3.5 mph - N/A   Scattered Clouds
2:35 AM 60.8 °F 60.1 °F 97% 30.04 in 1.5 mi Calm Calm - N/A   Overcast
2:59 AM 62.4 °F 61.7 °F 97% 30.04 in 0.2 mi Calm Calm - N/A Fog Fog
3:17 AM 63.0 °F 62.2 °F 97% 30.04 in 0.2 mi Calm Calm - N/A Fog Fog
3:35 AM 63.0 °F 62.2 °F 97% 30.04 in 0.2 mi Calm Calm - N/A Fog Fog
3:36 AM 63.1 °F 62.4 °F 97% 30.04 in 0.2 mi Calm Calm - N/A Fog Fog
3:55 AM 63.9 °F 63.1 °F 97% 30.04 in 0.2 mi Calm Calm - N/A Fog Fog
4:15 AM 64.0 °F 63.3 °F 97% 30.04 in 0.2 mi Calm Calm - N/A Fog Fog
4:20 AM 63.9 °F 63.1 °F 97% 30.04 in 0.2 mi Calm Calm - N/A Fog Fog
4:38 AM 63.9 °F 63.1 °F 97% 30.03 in 0.2 mi Calm Calm - N/A Fog Fog
4:56 AM 63.9 °F 63.1 °F 97% 30.03 in 0.2 mi Calm Calm - N/A Fog Fog
5:15 AM 64.4 °F 63.7 °F 98% 30.04 in 0.2 mi Calm Calm - N/A Fog Fog
5:16 AM 64.4 °F 63.7 °F 98% 30.04 in 0.2 mi Calm Calm - N/A Fog Fog
5:35 AM 64.0 °F 63.5 °F 98% 30.04 in 0.2 mi Calm Calm - N/A Fog Fog
5:59 AM 64.4 °F 63.5 °F 97% 30.04 in 0.2 mi Calm Calm - N/A Fog Fog
6:17 AM 63.9 °F 63.1 °F 97% 30.04 in 0.2 mi Calm Calm - N/A Fog Fog
6:35 AM 63.5 °F 62.6 °F 97% 30.05 in 0.2 mi Calm Calm - N/A Fog Fog
6:55 AM 62.8 °F 62.1 °F 97% 30.05 in 0.2 mi Calm Calm - N/A Fog Fog
6:56 AM 62.8 °F 62.1 °F 97% 30.05 in 0.2 mi Calm Calm - N/A Fog Fog
7:15 AM 63.0 °F 62.2 °F 97% 30.05 in 0.2 mi Calm Calm - N/A Fog Fog
7:20 AM 63.0 °F 62.2 °F 97% 30.06 in 0.2 mi Calm Calm - N/A Fog Fog
7:38 AM 63.1 °F 62.4 °F 97% 30.06 in 0.2 mi Calm Calm - N/A Fog Fog
7:56 AM 63.5 °F 62.8 °F 97% 30.06 in 0.5 mi Calm Calm - N/A Fog Fog
8:15 AM 64.6 °F 63.7 °F 97% 30.06 in 1.2 mi Calm Calm - N/A   Overcast
8:16 AM 64.6 °F 63.9 °F 98% 30.06 in 1.5 mi Calm Calm - N/A   Overcast
8:35 AM 65.3 °F 64.4 °F 97% 30.06 in 3.0 mi Calm Calm - N/A   Mostly Cloudy
8:36 AM 65.3 °F 64.4 °F 97% 30.06 in 4.0 mi Calm Calm - N/A   Mostly Cloudy
8:59 AM 66.0 °F 65.1 °F 97% 30.06 in 7.0 mi Calm Calm - N/A   Overcast
9:17 AM 66.4 °F 65.5 °F 97% 30.07 in 10.0 mi Calm Calm - N/A   Overcast
9:35 AM 67.8 °F 66.7 °F 96% 30.07 in 10.0 mi Calm Calm - N/A   Mostly Cloudy
9:36 AM 68.0 °F 66.7 °F 96% 30.07 in 10.0 mi Calm Calm - N/A   Mostly Cloudy
9:55 AM 69.6 °F 66.7 °F 91% 30.07 in 10.0 mi Calm Calm - N/A   Scattered Clouds
9:56 AM 69.6 °F 66.7 °F 91% 30.07 in 10.0 mi Calm Calm - N/A   Scattered Clouds
10:15 AM 70.9 °F 66.7 °F 87% 30.07 in 10.0 mi Calm Calm - N/A   Scattered Clouds
10:20 AM 71.2 °F 66.9 °F 86% 30.07 in 10.0 mi Calm Calm - N/A   Scattered Clouds
10:38 AM 74.1 °F 65.8 °F 75% 30.07 in 10.0 mi Calm Calm - N/A   Clear
10:56 AM 75.9 °F 66.4 °F 72% 30.06 in 10.0 mi Calm Calm - N/A   Clear
11:15 AM 75.9 °F 67.3 °F 74% 30.06 in 10.0 mi SW 4.6 mph - N/A   Clear
11:16 AM 75.6 °F 67.3 °F 75% 30.06 in 10.0 mi SW 4.6 mph - N/A   Clear
11:36 AM 76.1 °F 67.5 °F 74% 30.06 in 10.0 mi WSW 4.6 mph - N/A   Scattered Clouds
11:59 AM 77.2 °F 68.0 °F 73% 30.06 in 10.0 mi WNW 4.6 mph - N/A   Clear
12:17 PM 76.8 °F 66.6 °F 70% 30.06 in 10.0 mi West 6.9 mph - N/A   Clear
12:35 PM 77.0 °F 66.4 °F 70% 30.06 in 10.0 mi WNW 6.9 mph - N/A   Clear
12:36 PM 77.0 °F 66.4 °F 70% 30.06 in 10.0 mi West 6.9 mph - N/A   Clear
12:55 PM 77.2 °F 65.7 °F 67% 30.06 in 10.0 mi WNW 9.2 mph - N/A   Clear
12:56 PM 77.2 °F 65.8 °F 68% 30.06 in 10.0 mi WNW 8.1 mph - N/A   Clear
1:15 PM 77.4 °F 64.9 °F 65% 30.06 in 10.0 mi WNW 9.2 mph - N/A   Clear
1:20 PM 77.0 °F 64.2 °F 65% 30.05 in 10.0 mi WNW 8.1 mph - N/A   Clear
1:38 PM 77.7 °F 64.6 °F 64% 30.05 in 10.0 mi WNW 8.1 mph - N/A   Clear
1:56 PM 77.7 °F 65.5 °F 66% 30.05 in 10.0 mi WNW 8.1 mph - N/A   Clear
2:15 PM 78.4 °F 65.7 °F 65% 30.04 in 10.0 mi NNW 6.9 mph - N/A   Clear
2:35 PM 78.3 °F 63.0 °F 59% 30.04 in 10.0 mi NW 9.2 mph - N/A   Clear
2:36 PM 78.3 °F 63.0 °F 59% 30.04 in 10.0 mi NNW 9.2 mph - N/A   Clear
2:59 PM 78.4 °F 59.2 °F 51% 30.04 in 10.0 mi NNW 10.4 mph - N/A   Clear
3:17 PM 77.9 °F 58.1 °F 50% 30.04 in 10.0 mi NW 10.4 mph - N/A   Clear
3:35 PM 77.9 °F 55.2 °F 45% 30.04 in 10.0 mi NW 11.5 mph 17.3 mph N/A   Clear
3:55 PM 77.7 °F 58.8 °F 52% 30.04 in 10.0 mi NW 11.5 mph 18.4 mph N/A   Clear
4:15 PM 77.9 °F 58.5 °F 51% 30.03 in 10.0 mi North 6.9 mph - N/A   Clear
4:20 PM 77.7 °F 58.5 °F 51% 30.03 in 10.0 mi NW 8.1 mph - N/A   Clear
4:38 PM 77.7 °F 58.1 °F 51% 30.03 in 10.0 mi NNW 10.4 mph - N/A   Clear
4:56 PM 77.5 °F 57.0 °F 49% 30.02 in 10.0 mi North 8.1 mph - N/A   Clear
5:15 PM 77.7 °F 56.7 °F 48% 30.02 in 10.0 mi NNW 8.1 mph - N/A   Clear
5:16 PM 77.7 °F 56.7 °F 48% 30.02 in 10.0 mi NNW 8.1 mph - N/A   Clear
5:35 PM 77.5 °F 54.7 °F 45% 30.02 in 10.0 mi NNW 8.1 mph - N/A   Clear
5:59 PM 77.4 °F 53.4 °F 43% 30.02 in 10.0 mi NNW 6.9 mph - N/A   Clear
6:17 PM 76.8 °F 52.7 °F 43% 30.02 in 10.0 mi North 8.1 mph - N/A   Clear
6:35 PM 76.3 °F 50.5 °F 40% 30.02 in 10.0 mi North 8.1 mph - N/A   Clear
6:55 PM 75.2 °F 51.4 °F 43% 30.02 in 10.0 mi North 6.9 mph - N/A   Clear
7:15 PM 74.5 °F 50.4 °F 43% 30.01 in 10.0 mi NNW 5.8 mph - N/A   Clear
7:20 PM 74.5 °F 50.2 °F 42% 30.01 in 10.0 mi NNW 3.5 mph - N/A   Clear
7:38 PM 74.1 °F 51.3 °F 45% 30.01 in 10.0 mi Calm Calm - N/A   Clear
7:56 PM 73.2 °F 51.6 °F 47% 30.02 in 10.0 mi North 3.5 mph - N/A   Clear
8:15 PM 71.4 °F 54.3 °F 55% 30.02 in 10.0 mi Calm Calm - N/A   Clear
8:16 PM 71.2 °F 54.3 °F 55% 30.02 in 10.0 mi Calm Calm - N/A   Clear
8:35 PM 68.4 °F 56.1 °F 65% 30.02 in 10.0 mi Calm Calm - N/A   Clear
8:59 PM 66.7 °F 56.8 °F 70% 30.01 in 10.0 mi Calm Calm - N/A   Clear
9:17 PM 63.9 °F 55.8 °F 75% 30.01 in 10.0 mi Calm Calm - N/A   Clear
9:35 PM 63.5 °F 56.3 °F 77% 30.00 in 10.0 mi Calm Calm - N/A   Clear
9:36 PM 63.5 °F 56.3 °F 77% 30.00 in 10.0 mi Calm Calm - N/A   Clear
9:55 PM 62.2 °F 55.9 °F 80% 30.00 in 4.0 mi Calm Calm - N/A   Haze
10:15 PM 61.7 °F 55.4 °F 80% 30.00 in 10.0 mi Calm Calm - N/A   Clear
10:38 PM 58.6 °F 54.9 °F 87% 30.00 in 10.0 mi Calm Calm - N/A   Clear
10:56 PM 56.8 °F 53.8 °F 89% 30.00 in 10.0 mi Calm Calm - N/A   Clear
11:15 PM 59.0 °F 55.9 °F 90% 29.99 in 10.0 mi Calm Calm - N/A   Clear
11:35 PM 57.4 °F 55.0 °F 92% 30.00 in 10.0 mi Calm Calm - N/A   Clear
11:59 PM 57.9 °F 56.3 °F 94% 29.99 in 10.0 mi Calm Calm - N/A   Clear